Location: Le Domaine
(47.0333°N, 76.5361°W)
Time: 15:48:32
(UTC-05:00)

S-56A Canister/Altair - Pass Details

Date: 19 November 2019
Orbit: 632 x 2500 km, 38.9° (Epoch: 14 December)

Event Time Altitude Azimuth Distance (km) Brightness Sun altitude
Rises 18:18:31 0° 248° (WSW) 4,979 13.2 -18.7°
Reaches altitude 10° 18:22:27 10° 243° (WSW) 3,675 12.1 -19.3°
Maximum altitude 18:30:38 42° 176° (S) 1,530 9.0 -20.7°
Enters shadow 18:33:30 28° 126° (SE) 1,767 8.9 -21.2°
Drops below altitude 10° 18:36:15 10° 107° (ESE) 2,527 - -21.7°
Sets 18:38:30 0° 100° (E) 3,301 - -22.1°
